| time (UTC) | temp F | wind direction | speed MPH | gust MPH | rain 1hr in | rain 24hr in | rain mn in | humidity % | barometer mb |
| 20260506062030 | 60 | 288 | 4.0 | 8.0 | 0.00 | 0.00 | 0.00 | 73 | 1008.0 |
| 20260506061529 | 60 | 259 | 4.0 | 8.0 | 0.00 | 0.00 | 0.00 | 71 | 1008.1 |
| 20260506061027 | 60 | 263 | 5.0 | 10.0 | 0.00 | 0.00 | 0.00 | 72 | 1008.0 |
| 20260506060527 | 60 | 227 | 5.0 | 10.0 | 0.00 | 0.00 | 0.00 | 73 | 1008.0 |
| 20260506051022 | 53 | 232 | 3.0 | 7.0 | 0.00 | 0.00 | 0.00 | 88 | 1008.0 |
| 20260506050521 | 53 | 213 | 4.0 | 6.0 | 0.00 | 0.00 | 0.00 | 90 | 1008.1 |
| 20260506045019 | 51 | 222 | 3.0 | 7.0 | 0.00 | 0.00 | 0.00 | 94 | 1008.1 |
| 20260506044520 | 50 | 222 | 3.0 | 6.0 | 0.00 | 0.00 | 0.00 | 94 | 1008.2 |
| 20260506044020 | 49 | 213 | 4.0 | 6.0 | 0.00 | 0.00 | 0.00 | 94 | 1008.2 |
| 20260506043517 | 49 | 225 | 4.0 | 6.0 | 0.00 | 0.00 | 0.00 | 93 | 1008.1 |
| 20260506043011 | 48 | 217 | 2.0 | 6.0 | 0.00 | 0.00 | 0.00 | 92 | 1008.1 |
| 20260506042511 | 48 | 228 | 1.0 | 3.0 | 0.00 | 0.00 | 0.00 | 91 | 1008.1 |
| 20260506042013 | 48 | 227 | 0.0 | 1.0 | 0.00 | 0.00 | 0.00 | 90 | 1008.0 |
| 20260506041513 | 48 | 227 | 0.0 | 1.0 | 0.00 | 0.00 | 0.00 | 90 | 1007.8 |
| 20260506041012 | 48 | 227 | 0.0 | 1.0 | 0.00 | 0.00 | 0.00 | 90 | 1007.7 |
| 20260506040509 | 48 | 227 | 0.0 | 2.0 | 0.00 | 0.00 | 0.00 | 90 | 1007.6 |
| 20260506040008 | 48 | 227 | 1.0 | 2.0 | 0.00 | 0.00 | 0.00 | 90 | 1007.7 |
| 20260506035503 | 48 | 227 | 1.0 | 2.0 | 0.00 | 0.00 | 0.00 | 90 | 1007.6 |
| 20260506035002 | 48 | 227 | 1.0 | 2.0 | 0.00 | 0.00 | 0.00 | 89 | 1007.5 |
| 20260506034505 | 48 | 227 | 0.0 | 0.0 | 0.00 | 0.00 | 0.00 | 89 | 1007.4 |
| 20260506034004 | 49 | 227 | 0.0 | 0.0 | 0.00 | 0.00 | 0.00 | 89 | 1007.4 |
| 20260506033502 | 49 | 227 | 0.0 | 0.0 | 0.00 | 0.00 | 0.00 | 89 | 1007.4 |
| 20260506033005 | 49 | 227 | 0.0 | 0.0 | 0.00 | 0.00 | 0.00 | 89 | 1007.4 |
| 20260506032502 | 49 | 227 | 0.0 | 0.0 | 0.00 | 0.00 | 0.00 | 89 | 1007.4 |
| 20260506031955 | 49 | 227 | 0.0 | 0.0 | 0.00 | 0.00 | 0.00 | 88 | 1007.4 |
| 20260506031455 | 49 | 227 | 0.0 | 0.0 | 0.00 | 0.00 | 0.00 | 86 | 1007.3 |
| 20260506030951 | 49 | 227 | 0.0 | 0.0 | 0.00 | 0.00 | 0.00 | 85 | 1007.3 |
| 20260506030452 | 50 | 227 | 0.0 | 0.0 | 0.00 | 0.00 | 0.00 | 85 | 1007.3 |
| 20260506025949 | 50 | 227 | 0.0 | 0.0 | 0.00 | 0.00 | 0.00 | 85 | 1007.1 |
| 20260506025447 | 51 | 227 | 0.0 | 1.0 | 0.00 | 0.00 | 0.00 | 85 | 1007.3 |
| 20260506024946 | 51 | 227 | 1.0 | 3.0 | 0.00 | 0.00 | 0.00 | 85 | 1007.3 |
| 20260506024445 | 51 | 227 | 2.0 | 3.0 | 0.00 | 0.00 | 0.00 | 85 | 1007.4 |
| 20260506023946 | 51 | 227 | 1.0 | 3.0 | 0.00 | 0.00 | 0.00 | 86 | 1007.4 |
| 20260506023446 | 52 | 223 | 1.0 | 5.0 | 0.00 | 0.00 | 0.00 | 88 | 1007.5 |
| 20260506022945 | 52 | 221 | 2.0 | 5.0 | 0.00 | 0.00 | 0.00 | 89 | 1007.5 |
| 20260506022441 | 52 | 228 | 3.0 | 5.0 | 0.00 | 0.00 | 0.00 | 89 | 1007.5 |
| 20260506021944 | 52 | 222 | 3.0 | 5.0 | 0.00 | 0.00 | 0.00 | 90 | 1007.5 |
| 20260506021441 | 52 | 236 | 2.0 | 4.0 | 0.00 | 0.00 | 0.00 | 89 | 1007.5 |
| 20260506020941 | 52 | 239 | 2.0 | 3.0 | 0.00 | 0.00 | 0.00 | 89 | 1007.5 |
| 20260506020442 | 52 | 239 | 2.0 | 4.0 | 0.00 | 0.00 | 0.00 | 89 | 1007.5 |
| 20260506015941 | 53 | 239 | 2.0 | 4.0 | 0.00 | 0.00 | 0.00 | 90 | 1007.6 |
| 20260506015440 | 53 | 239 | 3.0 | 5.0 | 0.00 | 0.00 | 0.00 | 90 | 1007.6 |
| 20260506014936 | 53 | 247 | 3.0 | 5.0 | 0.00 | 0.00 | 0.00 | 90 | 1007.6 |
| 20260506014436 | 53 | 259 | 2.0 | 4.0 | 0.00 | 0.00 | 0.00 | 89 | 1007.6 |
| 20260506013937 | 53 | 258 | 2.0 | 6.0 | 0.00 | 0.00 | 0.00 | 89 | 1007.6 |
| 20260506013434 | 53 | 263 | 2.0 | 6.0 | 0.00 | 0.00 | 0.00 | 89 | 1007.6 |
| 20260506012930 | 53 | 261 | 2.0 | 4.0 | 0.00 | 0.00 | 0.00 | 88 | 1007.6 |
| 20260506012432 | 53 | 259 | 1.0 | 4.0 | 0.00 | 0.00 | 0.00 | 88 | 1007.6 |
| 20260506011932 | 53 | 258 | 0.0 | 3.0 | 0.00 | 0.00 | 0.00 | 87 | 1007.6 |
| 20260506011432 | 53 | 258 | 1.0 | 3.0 | 0.00 | 0.00 | 0.00 | 87 | 1007.6 |
| 20260506010929 | 53 | 258 | 1.0 | 4.0 | 0.00 | 0.00 | 0.00 | 87 | 1007.6 |
| 20260506010428 | 54 | 259 | 1.0 | 4.0 | 0.00 | 0.00 | 0.00 | 87 | 1007.6 |
| 20260506005929 | 54 | 254 | 2.0 | 4.0 | 0.00 | 0.00 | 0.00 | 87 | 1007.5 |
| 20260506005430 | 54 | 250 | 2.0 | 5.0 | 0.00 | 0.00 | 0.00 | 87 | 1007.6 |
| 20260506004931 | 54 | 261 | 2.0 | 5.0 | 0.00 | 0.00 | 0.00 | 87 | 1007.5 |
| 20260506004430 | 54 | 265 | 2.0 | 5.0 | 0.00 | 0.00 | 0.00 | 86 | 1007.5 |
| 20260506003929 | 54 | 271 | 2.0 | 6.0 | 0.00 | 0.00 | 0.00 | 86 | 1007.4 |
| 20260506003437 | 54 | 290 | 3.0 | 7.0 | 0.00 | 0.00 | 0.00 | 86 | 1007.3 |
| 20260506002929 | 54 | 255 | 4.0 | 8.0 | 0.00 | 0.00 | 0.00 | 86 | 1007.4 |
| 20260506002429 | 55 | 188 | 4.0 | 9.0 | 0.00 | 0.00 | 0.00 | 85 | 1007.3 |
| 20260506001929 | 55 | 255 | 4.0 | 9.0 | 0.00 | 0.00 | 0.00 | 84 | 1007.4 |
| 20260506001430 | 55 | 284 | 4.0 | 9.0 | 0.00 | 0.00 | 0.00 | 83 | 1007.1 |
| 20260506000933 | 56 | 290 | 4.0 | 6.0 | 0.00 | 0.00 | 0.00 | 82 | 1007.1 |
| 20260506000423 | 56 | 274 | 3.0 | 6.0 | 0.00 | 0.00 | 0.00 | 81 | 1007.0 |
| 20260505235925 | 56 | 277 | 3.0 | 8.0 | 0.00 | 0.00 | 0.00 | 81 | 1007.0 |
| 20260505235423 | 56 | 275 | 4.0 | 8.0 | 0.00 | 0.00 | 0.00 | 81 | 1006.9 |
| 20260505234924 | 56 | 279 | 5.0 | 10.0 | 0.00 | 0.00 | 0.00 | 80 | 1006.9 |
| 20260505234422 | 57 | 290 | 5.0 | 10.0 | 0.00 | 0.00 | 0.00 | 80 | 1006.9 |
| 20260505233923 | 57 | 283 | 5.0 | 9.0 | 0.00 | 0.00 | 0.00 | 79 | 1006.9 |
| 20260505233421 | 57 | 306 | 6.0 | 11.0 | 0.00 | 0.00 | 0.00 | 78 | 1006.9 |
| 20260505232921 | 58 | 284 | 6.0 | 11.0 | 0.00 | 0.00 | 0.00 | 78 | 1006.8 |
| 20260505232421 | 58 | 313 | 6.0 | 12.0 | 0.00 | 0.00 | 0.00 | 76 | 1006.8 |
| 20260505231917 | 58 | 296 | 6.0 | 12.0 | 0.00 | 0.00 | 0.00 | 76 | 1006.8 |
| 20260505231414 | 58 | 316 | 7.0 | 13.0 | 0.00 | 0.00 | 0.00 | 76 | 1006.6 |
| 20260505230916 | 58 | 300 | 7.0 | 14.0 | 0.00 | 0.00 | 0.00 | 76 | 1006.5 |
| 20260505230415 | 59 | 300 | 7.0 | 14.0 | 0.00 | 0.00 | 0.00 | 75 | 1006.4 |
| 20260505225915 | 59 | 325 | 6.0 | 12.0 | 0.00 | 0.00 | 0.00 | 75 | 1006.5 |
| 20260505225418 | 59 | 327 | 6.0 | 11.0 | 0.00 | 0.00 | 0.00 | 74 | 1006.4 |
| 20260505224915 | 59 | 299 | 7.0 | 12.0 | 0.00 | 0.00 | 0.00 | 73 | 1006.4 |
| 20260505224415 | 60 | 303 | 7.0 | 16.0 | 0.00 | 0.00 | 0.00 | 73 | 1006.4 |
| 20260505223915 | 60 | 319 | 7.0 | 16.0 | 0.00 | 0.00 | 0.00 | 72 | 1006.4 |
| 20260505223415 | 60 | 299 | 7.0 | 16.0 | 0.00 | 0.00 | 0.00 | 71 | 1006.5 |
| 20260505222915 | 61 | 276 | 9.0 | 17.0 | 0.00 | 0.00 | 0.00 | 70 | 1006.6 |
| 20260505222414 | 61 | 287 | 9.0 | 21.0 | 0.00 | 0.00 | 0.00 | 68 | 1006.7 |
| 20260505221915 | 61 | 291 | 9.0 | 21.0 | 0.00 | 0.00 | 0.00 | 66 | 1006.5 |
| 20260505221416 | 62 | 288 | 8.0 | 18.0 | 0.00 | 0.00 | 0.00 | 65 | 1006.4 |
| 20260505220917 | 62 | 263 | 7.0 | 14.0 | 0.00 | 0.00 | 0.00 | 64 | 1006.1 |
| 20260505220415 | 62 | 306 | 8.0 | 16.0 | 0.00 | 0.00 | 0.00 | 63 | 1005.9 |
| 20260505215916 | 62 | 329 | 7.0 | 16.0 | 0.00 | 0.00 | 0.00 | 63 | 1006.0 |
| 20260505215416 | 62 | 278 | 6.0 | 15.0 | 0.00 | 0.00 | 0.00 | 63 | 1006.1 |
| 20260505214914 | 62 | 304 | 6.0 | 12.0 | 0.00 | 0.00 | 0.00 | 62 | 1006.1 |
| 20260505214414 | 62 | 294 | 7.0 | 15.0 | 0.00 | 0.00 | 0.00 | 62 | 1006.2 |
| 20260505213905 | 63 | 306 | 7.0 | 15.0 | 0.00 | 0.00 | 0.00 | 61 | 1006.2 |
| 20260505213403 | 63 | 291 | 7.0 | 14.0 | 0.00 | 0.00 | 0.00 | 61 | 1006.2 |
| 20260505212904 | 63 | 280 | 8.0 | 18.0 | 0.00 | 0.00 | 0.00 | 60 | 1006.1 |
| 20260505212408 | 63 | 292 | 9.0 | 18.0 | 0.00 | 0.00 | 0.00 | 60 | 1006.1 |
| 20260505211905 | 64 | 246 | 9.0 | 19.0 | 0.00 | 0.00 | 0.00 | 60 | 1006.1 |
| 20260505211404 | 64 | 265 | 9.0 | 19.0 | 0.00 | 0.00 | 0.00 | 60 | 1006.2 |
| 20260505210903 | 64 | 264 | 8.0 | 18.0 | 0.00 | 0.00 | 0.00 | 59 | 1006.0 |
| 20260505210400 | 64 | 222 | 8.0 | 18.0 | 0.00 | 0.00 | 0.00 | 58 | 1006.0 |
| 20260505205901 | 64 | 254 | 9.0 | 24.0 | 0.00 | 0.00 | 0.00 | 58 | 1005.8 |
| 20260505205402 | 64 | 223 | 9.0 | 24.0 | 0.00 | 0.00 | 0.00 | 58 | 1005.6 |
| 20260505204902 | 64 | 302 | 9.0 | 17.0 | 0.00 | 0.00 | 0.00 | 59 | 1005.5 |
| 20260505204402 | 64 | 225 | 7.0 | 18.0 | 0.00 | 0.00 | 0.00 | 58 | 1005.2 |
| 20260505203901 | 64 | 243 | 7.0 | 18.0 | 0.00 | 0.00 | 0.00 | 58 | 1005.2 |
| 20260505203401 | 64 | 239 | 7.0 | 16.0 | 0.00 | 0.00 | 0.00 | 58 | 1005.1 |
| 20260505202901 | 64 | 214 | 7.0 | 15.0 | 0.00 | 0.00 | 0.00 | 58 | 1005.1 |
| 20260505202401 | 64 | 223 | 7.0 | 15.0 | 0.00 | 0.00 | 0.00 | 58 | 1005.0 |
| 20260505201901 | 64 | 250 | 5.0 | 14.0 | 0.00 | 0.00 | 0.00 | 59 | 1004.9 |
| 20260505201356 | 64 | 207 | 4.0 | 9.0 | 0.00 | 0.00 | 0.00 | 60 | 1004.9 |
| 20260505200850 | 63 | 267 | 4.0 | 10.0 | 0.00 | 0.00 | 0.00 | 60 | 1004.8 |
| 20260505200350 | 63 | 259 | 2.0 | 10.0 | 0.00 | 0.00 | 0.00 | 60 | 1004.7 |
| 20260505195848 | 63 | 260 | 0.0 | 5.0 | 0.00 | 0.00 | 0.00 | 64 | 1004.5 |
| 20260505195348 | 64 | 71 | 0.0 | 0.0 | 0.00 | 0.00 | 0.00 | 62 | 1004.2 |
| 20260505194846 | 64 | 71 | 0.0 | 0.0 | 0.00 | 0.00 | 0.00 | 63 | 1004.1 |
| 20260505194343 | 64 | 71 | 0.0 | 0.0 | 0.00 | 0.00 | 0.00 | 62 | 1004.1 |
| 20260505193843 | 64 | 71 | 0.0 | 0.0 | 0.00 | 0.00 | 0.00 | 61 | 1004.0 |
| 20260505193340 | 64 | 71 | 0.0 | 0.0 | 0.00 | 0.00 | 0.00 | 62 | 1003.9 |
| 20260505192840 | 64 | 71 | 0.0 | 0.0 | 0.00 | 0.00 | 0.00 | 62 | 1003.8 |
| 20260505192340 | 65 | 71 | 1.0 | 4.0 | 0.00 | 0.00 | 0.00 | 63 | 1003.8 |
| 20260505191838 | 65 | 71 | 1.0 | 4.0 | 0.00 | 0.00 | 0.00 | 62 | 1003.8 |
| 20260505191337 | 65 | 26 | 1.0 | 3.0 | 0.00 | 0.00 | 0.00 | 58 | 1003.7 |
| 20260505190837 | 65 | 26 | 1.0 | 3.0 | 0.00 | 0.00 | 0.00 | 58 | 1003.5 |
| 20260505190336 | 66 | 96 | 0.0 | 2.0 | 0.00 | 0.00 | 0.00 | 59 | 1003.5 |
| 20260505185835 | 66 | 96 | 0.0 | 2.0 | 0.00 | 0.00 | 0.00 | 57 | 1003.5 |
| 20260505185332 | 66 | 123 | 0.0 | 0.0 | 0.00 | 0.00 | 0.00 | 57 | 1003.4 |
| 20260505184831 | 67 | 123 | 0.0 | 0.0 | 0.00 | 0.00 | 0.00 | 55 | 1003.4 |
| 20260505184333 | 67 | 123 | 0.0 | 0.0 | 0.00 | 0.00 | 0.00 | 55 | 1003.4 |
| 20260505183833 | 68 | 123 | 0.0 | 0.0 | 0.00 | 0.00 | 0.00 | 55 | 1003.4 |
| 20260505183333 | 68 | 123 | 0.0 | 0.0 | 0.00 | 0.00 | 0.00 | 55 | 1003.4 |
| 20260505182825 | 68 | 123 | 0.0 | 0.0 | 0.00 | 0.00 | 0.00 | 53 | 1003.3 |
| 20260505182319 | 69 | 123 | 0.0 | 0.0 | 0.00 | 0.00 | 0.00 | 52 | 1003.4 |
| 20260505181826 | 69 | 123 | 0.0 | 0.0 | 0.00 | 0.00 | 0.00 | 50 | 1003.4 |
| 20260505181317 | 70 | 123 | 0.0 | 0.0 | 0.00 | 0.00 | 0.00 | 49 | 1003.4 |
| 20260505180816 | 71 | 123 | 0.0 | 0.0 | 0.00 | 0.00 | 0.00 | 48 | 1003.4 |
| 20260505180314 | 71 | 123 | 0.0 | 0.0 | 0.00 | 0.00 | 0.00 | 48 | 1003.4 |
| 20260505175812 | 72 | 123 | 0.0 | 0.0 | 0.00 | 0.00 | 0.00 | 48 | 1003.4 |
| 20260505175312 | 72 | 123 | 0.0 | 0.0 | 0.00 | 0.00 | 0.00 | 44 | 1003.4 |
| 20260505174808 | 73 | 123 | 0.0 | 0.0 | 0.00 | 0.00 | 0.00 | 43 | 1003.4 |
| 20260505174308 | 74 | 123 | 0.0 | 0.0 | 0.00 | 0.00 | 0.00 | 41 | 1003.5 |
| 20260505173809 | 74 | 123 | 0.0 | 2.0 | 0.00 | 0.00 | 0.00 | 39 | 1003.5 |
| 20260505173309 | 74 | 123 | 1.0 | 3.0 | 0.00 | 0.00 | 0.00 | 39 | 1003.5 |
| 20260505172809 | 75 | 123 | 2.0 | 3.0 | 0.00 | 0.00 | 0.00 | 38 | 1003.5 |
| 20260505172308 | 75 | 123 | 2.0 | 4.0 | 0.00 | 0.00 | 0.00 | 35 | 1003.5 |
| 20260505171808 | 75 | 123 | 2.0 | 4.0 | 0.00 | 0.00 | 0.00 | 35 | 1003.5 |
| 20260505171305 | 76 | 128 | 2.0 | 4.0 | 0.00 | 0.00 | 0.00 | 35 | 1003.5 |
| 20260505170804 | 76 | 131 | 2.0 | 4.0 | 0.00 | 0.00 | 0.00 | 34 | 1003.7 |
| 20260505170303 | 76 | 107 | 2.0 | 6.0 | 0.00 | 0.00 | 0.00 | 34 | 1003.7 |
| 20260505165758 | 76 | 100 | 2.0 | 6.0 | 0.00 | 0.00 | 0.00 | 33 | 1003.7 |
| 20260505165258 | 77 | 117 | 2.0 | 5.0 | 0.00 | 0.00 | 0.00 | 33 | 1003.8 |
| 20260505164758 | 77 | 142 | 3.0 | 7.0 | 0.00 | 0.00 | 0.00 | 33 | 1003.7 |
| 20260505164255 | 77 | 129 | 3.0 | 7.0 | 0.00 | 0.00 | 0.00 | 31 | 1003.7 |
| 20260505163745 | 77 | 119 | 4.0 | 8.0 | 0.00 | 0.00 | 0.00 | 32 | 1003.8 |
| 20260505163243 | 77 | 140 | 5.0 | 9.0 | 0.00 | 0.00 | 0.00 | 32 | 1003.9 |
| 20260505162738 | 77 | 146 | 4.0 | 9.0 | 0.00 | 0.00 | 0.00 | 32 | 1003.9 |
| 20260505162237 | 78 | 134 | 4.0 | 8.0 | 0.00 | 0.00 | 0.00 | 33 | 1003.9 |
| 20260505161737 | 78 | 138 | 6.0 | 10.0 | 0.00 | 0.00 | 0.00 | 32 | 1004.0 |
| 20260505161238 | 78 | 144 | 5.0 | 10.0 | 0.00 | 0.00 | 0.00 | 31 | 1004.1 |
| 20260505160736 | 78 | 148 | 4.0 | 9.0 | 0.00 | 0.00 | 0.00 | 32 | 1004.1 |
| 20260505160238 | 78 | 92 | 3.0 | 9.0 | 0.00 | 0.00 | 0.00 | 32 | 1004.2 |
| 20260505153229 | 78 | 115 | 6.0 | 14.0 | 0.00 | 0.00 | 0.00 | 31 | 1004.5 |
| 20260505152729 | 78 | 138 | 5.0 | 12.0 | 0.00 | 0.00 | 0.00 | 31 | 1004.5 |
| 20260505152229 | 78 | 13 | 5.0 | 11.0 | 0.00 | 0.00 | 0.00 | 31 | 1004.6 |
| 20260505151730 | 78 | 124 | 5.0 | 11.0 | 0.00 | 0.00 | 0.00 | 31 | 1004.7 |
| 20260505151229 | 78 | 124 | 5.0 | 13.0 | 0.00 | 0.00 | 0.00 | 31 | 1004.7 |
| 20260505150731 | 78 | 134 | 6.0 | 13.0 | 0.00 | 0.00 | 0.00 | 32 | 1004.7 |
| 20260505150230 | 78 | 141 | 6.0 | 11.0 | 0.00 | 0.00 | 0.00 | 32 | 1004.8 |
| 20260505140214 | 77 | 101 | 8.0 | 15.0 | 0.00 | 0.00 | 0.00 | 37 | 1005.6 |
| 20260505130141 | 75 | 84 | 5.0 | 11.0 | 0.00 | 0.00 | 0.00 | 40 | 1006.1 |
| 20260505124643 | 75 | 25 | 4.0 | 10.0 | 0.00 | 0.00 | 0.00 | 39 | 1006.4 |
| 20260505124140 | 75 | 140 | 4.0 | 10.0 | 0.00 | 0.00 | 0.00 | 38 | 1006.4 |
| 20260505123639 | 75 | 117 | 6.0 | 15.0 | 0.00 | 0.00 | 0.00 | 38 | 1006.5 |
| 20260505123141 | 76 | 61 | 8.0 | 18.0 | 0.00 | 0.00 | 0.00 | 36 | 1006.5 |
| 20260505122639 | 76 | 143 | 8.0 | 18.0 | 0.00 | 0.00 | 0.00 | 36 | 1006.4 |
| 20260505122139 | 76 | 100 | 7.0 | 18.0 | 0.00 | 0.00 | 0.00 | 38 | 1006.5 |
| 20260505121637 | 77 | 112 | 8.0 | 16.0 | 0.00 | 0.00 | 0.00 | 36 | 1006.6 |
| 20260505121138 | 78 | 161 | 8.0 | 16.0 | 0.00 | 0.00 | 0.00 | 35 | 1006.4 |
| 20260505120636 | 79 | 144 | 7.0 | 17.0 | 0.00 | 0.00 | 0.00 | 34 | 1006.5 |
| 20260505120135 | 79 | 107 | 8.0 | 17.0 | 0.00 | 0.00 | 0.00 | 36 | 1006.5 |
| 20260505115635 | 79 | 97 | 9.0 | 16.0 | 0.00 | 0.00 | 0.00 | 37 | 1006.5 |
| 20260505115136 | 79 | 145 | 7.0 | 16.0 | 0.00 | 0.00 | 0.00 | 35 | 1006.5 |
| 20260505114636 | 78 | 16 | 7.0 | 14.0 | 0.00 | 0.00 | 0.00 | 37 | 1006.5 |
| 20260505114132 | 78 | 74 | 6.0 | 14.0 | 0.00 | 0.00 | 0.00 | 35 | 1006.6 |
| 20260505113632 | 79 | 98 | 6.0 | 13.0 | 0.00 | 0.00 | 0.00 | 36 | 1006.6 |
| 20260505113128 | 79 | 34 | 7.0 | 13.0 | 0.00 | 0.00 | 0.00 | 38 | 1006.5 |
| 20260505112627 | 79 | 129 | 7.0 | 13.0 | 0.00 | 0.00 | 0.00 | 34 | 1006.6 |
| 20260505112127 | 79 | 117 | 6.0 | 13.0 | 0.00 | 0.00 | 0.00 | 37 | 1006.6 |
| 20260505111628 | 79 | 143 | 6.0 | 13.0 | 0.00 | 0.00 | 0.00 | 36 | 1006.7 |
| 20260505111127 | 79 | 127 | 6.0 | 13.0 | 0.00 | 0.00 | 0.00 | 34 | 1006.7 |
| 20260505110628 | 79 | 153 | 6.0 | 13.0 | 0.00 | 0.00 | 0.00 | 35 | 1006.8 |
| 20260505110133 | 78 | 117 | 5.0 | 12.0 | 0.00 | 0.00 | 0.00 | 36 | 1006.8 |
| 20260505102125 | 77 | 36 | 4.0 | 8.0 | 0.00 | 0.00 | 0.00 | 36 | 1007.4 |
| 20260505101624 | 77 | 75 | 4.0 | 9.0 | 0.00 | 0.00 | 0.00 | 37 | 1007.5 |
| 20260505101125 | 76 | 120 | 4.0 | 11.0 | 0.00 | 0.00 | 0.00 | 40 | 1007.5 |
| 20260505100620 | 77 | 5 | 3.0 | 11.0 | 0.00 | 0.00 | 0.00 | 38 | 1007.5 |
| 20260505100115 | 76 | 13 | 2.0 | 7.0 | 0.00 | 0.00 | 0.00 | 38 | 1007.6 |
| 20260505095604 | 76 | 125 | 4.0 | 10.0 | 0.00 | 0.00 | 0.00 | 38 | 1007.7 |
| 20260505095100 | 76 | 119 | 4.0 | 10.0 | 0.00 | 0.00 | 0.00 | 40 | 1007.7 |
| 20260505094553 | 75 | 163 | 3.0 | 8.0 | 0.00 | 0.00 | 0.00 | 41 | 1007.8 |
| 20260505094051 | 75 | 159 | 3.0 | 8.0 | 0.00 | 0.00 | 0.00 | 41 | 1007.8 |
| 20260505093551 | 75 | 161 | 4.0 | 8.0 | 0.00 | 0.00 | 0.00 | 38 | 1007.9 |
| 20260505093052 | 75 | 165 | 4.0 | 8.0 | 0.00 | 0.00 | 0.00 | 41 | 1007.9 |
| 20260505092552 | 75 | 115 | 4.0 | 8.0 | 0.00 | 0.00 | 0.00 | 42 | 1007.9 |
| 20260505092047 | 74 | 143 | 4.0 | 9.0 | 0.00 | 0.00 | 0.00 | 40 | 1007.9 |
| 20260505091547 | 74 | 144 | 4.0 | 9.0 | 0.00 | 0.00 | 0.00 | 44 | 1007.9 |
| 20260505091047 | 74 | 140 | 4.0 | 9.0 | 0.00 | 0.00 | 0.00 | 42 | 1008.0 |
| 20260505090548 | 73 | 171 | 4.0 | 9.0 | 0.00 | 0.00 | 0.00 | 44 | 1008.0 |
| 20260505090055 | 73 | 157 | 3.0 | 6.0 | 0.00 | 0.00 | 0.00 | 42 | 1008.0 |
| 20260505085545 | 73 | 148 | 3.0 | 6.0 | 0.00 | 0.00 | 0.00 | 44 | 1008.1 |
| 20260505085045 | 72 | 144 | 3.0 | 6.0 | 0.00 | 0.00 | 0.00 | 44 | 1008.1 |
| 20260505084551 | 72 | 151 | 3.0 | 5.0 | 0.00 | 0.00 | 0.00 | 42 | 1008.1 |
| 20260505084045 | 72 | 144 | 3.0 | 5.0 | 0.00 | 0.00 | 0.00 | 44 | 1008.2 |
| 20260505083543 | 72 | 132 | 3.0 | 5.0 | 0.00 | 0.00 | 0.00 | 45 | 1008.2 |
| 20260505083043 | 71 | 127 | 3.0 | 5.0 | 0.00 | 0.00 | 0.00 | 45 | 1008.2 |
| 20260505082546 | 71 | 183 | 4.0 | 6.0 | 0.00 | 0.00 | 0.00 | 45 | 1008.3 |
| 20260505082045 | 70 | 147 | 3.0 | 8.0 | 0.00 | 0.00 | 0.00 | 46 | 1008.3 |
| 20260505081541 | 70 | 127 | 3.0 | 8.0 | 0.00 | 0.00 | 0.00 | 47 | 1008.3 |
| 20260505081038 | 69 | 87 | 4.0 | 7.0 | 0.00 | 0.00 | 0.00 | 48 | 1008.4 |
| 20260505080536 | 69 | 92 | 3.0 | 7.0 | 0.00 | 0.00 | 0.00 | 52 | 1008.3 |
| 20260505080036 | 68 | 122 | 2.0 | 7.0 | 0.00 | 0.00 | 0.00 | 50 | 1008.3 |
| 20260505075537 | 67 | 32 | 3.0 | 6.0 | 0.00 | 0.00 | 0.00 | 49 | 1008.3 |
| 20260505075035 | 67 | 69 | 3.0 | 6.0 | 0.00 | 0.00 | 0.00 | 51 | 1008.4 |
| 20260505074536 | 66 | 355 | 4.0 | 7.0 | 0.00 | 0.00 | 0.00 | 51 | 1008.4 |
| 20260505074037 | 66 | 21 | 4.0 | 7.0 | 0.00 | 0.00 | 0.00 | 52 | 1008.4 |
| 20260505073536 | 65 | 27 | 3.0 | 6.0 | 0.00 | 0.00 | 0.00 | 53 | 1008.4 |
| 20260505073035 | 65 | 17 | 3.0 | 6.0 | 0.00 | 0.00 | 0.00 | 52 | 1008.4 |
| 20260505072537 | 64 | 31 | 3.0 | 6.0 | 0.00 | 0.00 | 0.00 | 52 | 1008.5 |
| 20260505072040 | 64 | 21 | 3.0 | 6.0 | 0.00 | 0.00 | 0.00 | 53 | 1008.6 |
| 20260505071534 | 64 | 9 | 3.0 | 5.0 | 0.00 | 0.00 | 0.00 | 55 | 1008.7 |
| 20260505071032 | 64 | 17 | 4.0 | 5.0 | 0.00 | 0.00 | 0.00 | 53 | 1008.7 |
| 20260505070532 | 63 | 28 | 4.0 | 7.0 | 0.00 | 0.00 | 0.00 | 52 | 1008.7 |
| 20260505070031 | 63 | 22 | 4.0 | 7.0 | 0.00 | 0.00 | 0.00 | 54 | 1008.8 |